This is the latest recevied weather packets stored in our database for station/object KD0RIH. If no packets are shown the sender has not sent any weather packets the latest 10 day(s).
| Time | Temp. | Humidity | Pressure | Rain* | Wind** | Luminosity | Snow |
|---|---|---|---|---|---|---|---|
| 1778026628 | 13.33° C | 49% | 1011.2 hPa | 0 mm | - | 26 W/m² | - |
| 1778026325 | 13.33° C | 48% | 1011.2 hPa | 0 mm | - | 38 W/m² | - |
| 1778026022 | 13.33° C | 47% | 1011.1 hPa | 0 mm | - | 59 W/m² | - |
| 1778025720 | 13.89° C | 47% | 1011.6 hPa | 0 mm | - | 37 W/m² | - |
| 1778025417 | 13.89° C | 48% | 1011.2 hPa | 0 mm | - | 33 W/m² | - |
| 1778025115 | 13.33° C | 49% | 1011.5 hPa | 0 mm | - | 39 W/m² | - |
| 1778024811 | 13.33° C | 47% | 1011.7 hPa | 0 mm | - | 31 W/m² | - |
| 1778024508 | 13.33° C | 47% | 1011.6 hPa | 0 mm | - | 41 W/m² | - |
| 1778024205 | 13.33° C | 48% | 1011.4 hPa | 0 mm | - | 36 W/m² | - |
| 1778023903 | 13.89° C | 47% | 1011.2 hPa | 0 mm | - | 78 W/m² | - |
| 1778023600 | 14.44° C | 45% | 1011.5 hPa | 0 mm | - | 54 W/m² | - |
| 1778023298 | 14.44° C | 46% | 1011.4 hPa | 0 mm | - | 49 W/m² | - |
| 1778022994 | 14.44° C | 46% | 1011.4 hPa | 0 mm | - | 51 W/m² | - |
| 1778022693 | 14.44° C | 46% | 1011.2 hPa | 0 mm | - | 48 W/m² | - |
| 1778022391 | 14.44° C | 44% | 1011.2 hPa | 0 mm | - | 56 W/m² | - |
| 1778022087 | 14.44° C | 45% | 1011.1 hPa | 0 mm | - | 52 W/m² | - |
| 1778021783 | 15° C | 44% | 1011.3 hPa | 0 mm | - | 64 W/m² | - |
| 1778021480 | 15° C | 45% | 1011.2 hPa | 0 mm | - | 78 W/m² | - |
| 1778021176 | 15° C | 43% | 1011.2 hPa | 0 mm | - | 86 W/m² | - |
| 1778020874 | 14.44° C | 45% | 1011.2 hPa | 0 mm | - | 84 W/m² | - |
| 1778020571 | 15° C | 46% | 1011 hPa | 0 mm | - | 99 W/m² | - |
| 1778020267 | 15° C | 46% | 1011.2 hPa | 0 mm | - | 89 W/m² | - |
| 1778019963 | 15° C | 47% | 1011.3 hPa | 0 mm | - | 92 W/m² | - |
| 1778019660 | 15° C | 46% | 1011.2 hPa | 0 mm | - | 89 W/m² | - |
| 1778019357 | 14.44° C | 45% | 1011.5 hPa | 0 mm | - | 96 W/m² | - |
* Rain latest hour (hover to see other rain measurements)
** Current wind speed in m/s (hover to see current wind gust speed)